+ View the NASA Portal
+ Center for Near-Earth Object Studies
IMPORTANT:
The SSD Announcement email list is now available. Major changes are coming in the near future, including possible hostname and/or URL changes. To be notified of such changes, subscribe to this email list.
Please visit
this page
for more details.
Don't show this message again
JPL Small-Body Database Browser
Search:
[
help
]
344332 (2001 VL75)
Classification:
Mars-crossing Asteroid
SPK-ID:
2344332
[
Ephemeris
|
Orbit Diagram
|
Orbital Elements
|
Mission Design
|
Physical Parameters
|
Discovery Circumstances
]
[ show orbit diagram ]
Orbital Elements at Epoch 2458600.5 (2019-Apr-27.0) TDB
Reference:
JPL 13
(heliocentric ecliptic J2000)
Element
Value
Uncertainty (1-sigma)
Units
e
.3179939018208978
9.3655e-08
a
2.303399679712204
1.967e-08
au
q
1.570932628107515
2.1847e-07
au
i
19.55782049454735
6.9664e-06
deg
node
252.4709720989062
2.0964e-05
deg
peri
267.8909725010564
2.335e-05
deg
M
262.620831055838
1.5017e-05
deg
t
p
2458945.894917907037
(2020-Apr-06.39491791)
5.6523e-05
TDB
period
1276.886748929149
3.50
1.6356e-05
4.478e-08
d
yr
n
.2819357318116983
3.6114e-09
deg/d
Q
3.035866731316895
2.5925e-08
au
Orbit Determination Parameters
# obs. used (total)
260
data-arc span
7611 days (20.84 yr)
first obs. used
1999-01-22
last obs. used
2019-11-24
planetary ephem.
DE431
SB-pert. ephem.
SB431-N16
condition code
0
norm. resid. RMS
.5888
source
ORB
producer
Otto Matic
solution date
2019-Dec-04 22:56:38
Additional Information
Earth MOID
= .718444 au
Jupiter MOID
= 2.39788 au
T_jup
= 3.448
[ show covariance matrix ]
[
Ephemeris
|
Orbit Diagram
|
Orbital Elements
|
Mission Design
|
Physical Parameters
|
Discovery Circumstances
]
Physical Parameter Table
Parameter
Symbol
Value
Units
Sigma
Reference
Notes
absolute magnitude
H
15.8
n/a
MPO360694
344332 (2001 VL75)
Discovered 2001-Nov-12 by LINEAR at Socorro
Reference:
20121128/Numbers.arc
Last Updated:
2012-12-03
Alternate Designations
2001 VL75
= 1999 BZ33
[
Ephemeris
|
Orbit Diagram
|
Orbital Elements
|
Mission Design
|
Physical Parameters
|
Discovery Circumstances
]
2019-Dec-10 06:06 UT
(server date/time)
Site Manager:
Ryan S. Park
Webmaster
:
Alan B. Chamberlin